Location: Oshawa
(43.9000°N, 78.8670°W)
Time: 15:42:36
(UTC-04:00)

Thor Agena Rocket - Visible Passes

Search period start: 18 September 2014 00:00
Search period end: 28 September 2014 00:00
Orbit: 761 x 809 km, 99.0° (Epoch: 18 September)

Date Brightness Start Highest point End Pass type
(mag) Time Alt. Az. Time Alt. Az. Time Alt. Az.
18 Sep 6.5 00:53:03 10° NNE 00:53:03 10° NNE 00:53:03 10° NNE visible
18 Sep 6.2 02:33:41 13° NNW 02:33:41 13° NNW 02:34:16 10° NNW visible
19 Sep 6.3 02:02:32 14° N 02:02:32 14° N 02:03:14 10° N visible
20 Sep 6.4 01:31:22 12° N 01:31:22 12° N 01:31:54 10° N visible
21 Sep 6.4 02:40:51 11° NNW 02:40:51 11° NNW 02:40:58 10° NNW visible
22 Sep 6.4 02:09:42 12° N 02:09:42 12° N 02:09:59 10° N visible
23 Sep 6.5 01:38:32 11° N 01:38:32 11° N 01:38:43 10° N visible
